Terug naar catalogus

FALCON 9 R/B

ActiefMEO
NORAD 58348·ROCKET BODY·🇺🇸 United States

Gelanceerd Nov 12, 2023 vanaf Cape Canaveral Space Force Station

Loading…

Volgende Passages (komende 24 uur)

TLE

VersSource: Space-Track

Epoch: Sep 14, 2026, 13:51 UTC

1 58348U 23175C   26257.57760694  .00000029  00000-0 -88866-2 0  9992
2 58348   9.0188  86.5320 1974411 352.2265   5.1211  7.34839601 76264

Volg FALCON 9 R/B in realtime met AllMySat

Download on the App Store